Regional Weather Roundup
Issued by NWS Memphis, TN

Home | Current Version | Previous Version | Text Only | Print | Product List | Glossary On
Versions: 1 2 3 4 5 6 7 8 9 10 11 12 13 14 15 16 17 18 19 20 21 22 23 24 25 26 27 28 29 30 31 32 33 34 35 36 37 38 39 40 41 42 43 44 45 46 47 48 49 50
000
ASUS44 KMEG 021810
RWRMEG
MEMPHIS CWA HOURLY WEATHER ROUNDUP
NATIONAL WEATHER SERVICE MEMPHIS TN
100 PM CDT THU JUL 02 2015

...WEST TENNESSEE...

CITY           SKY/WX    TMP DP  RH WIND       PRES   REMARKS
MEMPHIS INTL   CLOUDY    81  69  67 SW12G21   29.92F
6HR MIN TEMP:  78; 6HR MAX TEMP:  82;

NWS MEMPHIS      N/A     81 N/A N/A MISG        N/A
JACKSON        PTSUNNY   80  69  69 SW14      29.90F
6HR MIN TEMP:  77; 6HR MAX TEMP:  83; 6HR PCP: TRACE;

LEXINGTON      PTSUNNY   81  72  74 SW10      29.91S
DYERSBURG        N/A    N/A N/A N/A MISG        N/A
PARIS          MOSUNNY   82  73  74 SW9       29.87F


...EASTERN ARKANSAS...

CITY           SKY/WX    TMP DP  RH WIND       PRES   REMARKS
JONESBORO      PTSUNNY   82  72  71 SW12      29.86F
6HR MIN TEMP:  76; 6HR MAX TEMP:  83; 6HR PCP:  0.01;

WEST MEMPHIS   CLOUDY    81  72  74 S13G21    29.88F
6HR MIN TEMP:  77; 6HR MAX TEMP:  81;

BATESVILLE     PTSUNNY   84  73  70 SW13      29.86F HX  91
6HR MIN TEMP:  72; 6HR MAX TEMP:  84; 6HR PCP:  0.64;

NEWPORT        PTSUNNY   85  74  69 SW14      29.86F HX  92
6HR MIN TEMP:  76; 6HR MAX TEMP:  85; 6HR PCP:  0.24;

WALNUT RIDGE   PTSUNNY   84  72  65 W14       29.85F
6HR MIN TEMP:  72; 6HR MAX TEMP:  84;

BLYTHEVILLE    PTSUNNY   84  74  71 SW14      29.87F HX  91
6HR MIN TEMP:  77; 6HR MAX TEMP:  85; 6HR PCP:  0.02;

NW BLYTHEVILLE PTSUNNY   84  72  65 SW9       29.86F
SEARCY         MOSUNNY   86  73  65 SW10      29.88F HX  93
6HR MIN TEMP:  74; 6HR MAX TEMP:  86; 6HR PCP:  0.04;

STUTTGART      SUNNY     88  70  55 MISG      29.91F HX  92
6HR MIN TEMP:  75; 6HR MAX TEMP:  90;

PINE BLUFF     MOSUNNY   86  69  56 SW15G24   29.94F HX  90
6HR MIN TEMP:  75; 6HR MAX TEMP:  87;

MONTICELLO     CLOUDY    85  71  63 SW14G28   29.97F HX  90
6HR MIN TEMP:  75; 6HR MAX TEMP:  85;



...NORTH MISSISSIPPI...

CITY           SKY/WX    TMP DP  RH WIND       PRES   REMARKS
TUPELO         CLOUDY    80  69  69 W12G20    29.96F
6HR MIN TEMP:  77; 6HR MAX TEMP:  84;

TUNICA         CLOUDY    81  68  65 SW15      29.92F
CLARKSDALE     CLOUDY    81  72  74 SW14G21   29.94F
CORINTH        CLOUDY    79  68  69 SW10G17   29.94S
GREENWOOD      CLOUDY    84  70  62 SW12G20   29.99F
6HR MIN TEMP:  75; 6HR MAX TEMP:  84; 6HR PCP: TRACE;

COLUMBUS       CLOUDY    85  70  61 W13       29.99F
6HR MIN TEMP:  76; 6HR MAX TEMP:  85;

STARKVILLE     FAIR      81  72  74 SW5       30.00F
GOLDEN TRIANGL SUNNY     84  70  61 W12G18    29.99F


...SOUTHEAST MISSOURI...

CITY           SKY/WX    TMP DP  RH WIND       PRES   REMARKS
WEST PLAINS    MOSUNNY   81  71  71 W13       29.89F
6HR MIN TEMP:  69; 6HR MAX TEMP:  82; 6HR PCP: TRACE;

POPLAR BLUFF   CLOUDY    84  70  62 W7        29.85F
6HR MIN TEMP:  74; 6HR MAX TEMP:  84;

CAPE GIRARDEAU CLOUDY    81  71  71 W8        29.85F
6HR MIN TEMP:  71; 6HR MAX TEMP:  83;



...NORTHWEST ALABAMA...

CITY           SKY/WX    TMP DP  RH WIND       PRES   REMARKS
MUSCLE SHOALS  CLOUDY    84  69  60 SW13      29.96F
6HR MIN TEMP:  76; 6HR MAX TEMP:  86;



...MIDDLE TENNESSEE...

CITY           SKY/WX    TMP DP  RH WIND       PRES   REMARKS
NASHVILLE      CLOUDY    78  73  84 S8        29.93S
6HR MIN TEMP:  69; 6HR MAX TEMP:  79; 6HR PCP:  0.40;

CLARKSVILLE    MOSUNNY   82  73  74 S9        29.89S
6HR MIN TEMP:  69; 6HR MAX TEMP:  82; 6HR PCP:  0.27;

COLUMBIA       MOSUNNY   81  75  83 SE5       29.91F


...WESTERN KENTUCKY...

CITY           SKY/WX    TMP DP  RH WIND       PRES   REMARKS
PADUCAH        CLOUDY    83  72  69 W8        29.84F
6HR MIN TEMP:  70; 6HR MAX TEMP:  84;

FORT CAMPBELL  PTSUNNY   82  72  69 SW12      29.87F
6HR MIN TEMP:  69; 6HR MAX TEMP:  84; 6HR PCP:  0.13;



...CENTRAL ARKANSAS...

CITY           SKY/WX    TMP DP  RH WIND       PRES   REMARKS
LITTLE ROCK    MOSUNNY   88  67  49 SW15      29.90F HX  91
6HR MIN TEMP:  77; 6HR MAX TEMP:  88;



SKY/WX REPORTED AS FAIR MEANS FEW OR NO CLOUDS BELOW
12 THOUSAND FEET.



USA.gov is the U.S. government's official web portal to all federal, state and local government web resources and services.